Regional Weather Roundup
Issued by NWS

Home | Current Version | Previous Version | Text Only | Print | Product List | Glossary Off
Versions: 1 2 3 4 5 6 7 8 9 10 11 12 13 14 15 16 17 18 19 20 21 22 23 24 25 26 27 28 29 30 31 32 33 34 35 36 37 38 39 40 41 42 43 44 45 46 47 48 49 50

000
ASUS43 KMPX 211510
RWRMN
WEATHER ROUNDUP FOR MINNESOTA
NATIONAL WEATHER SERVICE TWIN CITIES/CHANHASSEN MN
900 AM CST WED FEB 21 2018


NOTE: "FAIR" INDICATES FEW OR NO CLOUDS BELOW 12,000 FEET WITH NO
SIGNIFICANT WEATHER AND/OR OBSTRUCTIONS TO VISIBILITY. N/A MEANS
CURRENT SKY AND/OR WEATHER CONDITIONS ARE NOT AVAILABLE.

MNZ060>063-068>070-211600-
   Twin Cities Metro

CITY           SKY/WX    TMP DP  RH WIND       PRES   REMARKS
TWIN CITIES    FAIR       5   0  79 SW8       30.59R WCI  -8
ST PAUL        FAIR       4  -1  80 SW3       30.61R
CRYSTAL        FAIR       5  -3  69 S7        30.56R WCI  -7
BLAINE         SUNNY      7   0  72 SW6       30.55R WCI  -3
LAKEVILLE      FAIR       5  -2  72 W5        30.58R WCI  -4
EDEN PRAIRIE   FAIR       3  -4  72 SW10      30.58R WCI -12
SOUTH ST PAUL  FAIR       6  -1  71 CALM      30.59R
LAKE ELMO      FAIR       7   1  78 SW3       30.58R
$$
MNZ001>005-007-008-013>017-022>024-027-028-211600-
   Northwest Minnesota

CITY           SKY/WX    TMP DP  RH WIND       PRES   REMARKS
BEMIDJI        FAIR       0  -6  76 SW6       30.39R WCI -11
HALLOCK        FAIR      -6 -11  77 S10       30.39R WCI -23
ROSEAU         FAIR       0  -8  71 SW12      30.36R WCI -18
WARROAD        FAIR      -2  -8  78 SW7       30.35R WCI -16
THIEF RVR FALL FAIR      -4 -10  75 S8        30.41R WCI -19
CROOKSTON      FAIR      -6 -11  77 SW8       30.45R WCI -21
FOSSTON        FAIR      -6 -11  77 S10       30.41R WCI -23
DETROIT LAKES  FAIR      -2  -8  78 SW8       30.44R WCI -17
MOORHEAD       FAIR      -8 -15  71 S9        30.49R WCI -25
PARK RAPIDS    FAIR      -4  -4 100 SW6       30.41R WCI -16
MAHNOMEN       FAIR      -6 -12  78 S12       30.42S WCI -25
$$
MNZ006-009>011-018-025>026-211600-
   North Central Minnesota

CITY           SKY/WX    TMP DP  RH WIND       PRES   REMARKS
BAUDETTE       FAIR      -2  -7  79 SW7       30.34R WCI -15
FLAG ISLAND    FAIR       0  -6  78 W13       30.31R WCI -18
INTL FALLS     FAIR      -1  -5  82 SW6       30.36R WCI -13
WASKISH        FAIR       0  -8  71 SW14      30.38S WCI -19
BIG FORK       FAIR       1  -4  78 SW9       30.36F WCI -14
LONGVILLE      FAIR       0  -4  85 S5        30.41R WCI -10
GRAND RAPIDS   FAIR       2  -5  72 SW5       30.42S WCI  -8
CRANE LAKE     FAIR       0  -6  78 S5        30.41R WCI -10
ORR            FAIR       0  -6  78 SW5       30.34S WCI -10
COOK             N/A      1  -4  78 SW8       30.36F WCI -12
WALKER         FAIR       2  -7  67 W6        30.40R WCI  -9
$$
MNZ012-019>021-037-211600-
   Northeast Minnesota

CITY           SKY/WX    TMP DP  RH WIND       PRES   REMARKS
DULUTH         FAIR       3  -2  79 W10       30.39S WCI -12
ELY            FAIR       0  -6  78 W7        30.37S WCI -13
HIBBING        FAIR      -7 -10  87 CALM      30.39S FOG
EVELETH        FAIR     N/A N/A N/A CALM      30.39F
DULUTH HARBOR  FAIR       3  -2  78 SW9       30.50S WCI -11
TWO HARBORS    FAIR      10   0  61 W8        30.40S WCI  -1
GRAND MARAIS     N/A     10   1  67 SW7       30.45R WCI  -1
G MARAIS ARPRT FAIR       3  -4  72 W5        30.31S WCI  -6
$$
MNZ029>031-032-039>041-046>048-054>057-064-211600-
   West Central Minnesota

CITY           SKY/WX    TMP DP  RH WIND       PRES   REMARKS
FERGUS FALLS   FAIR      -8 -11  84 S6        30.50S WCI -21
WHEATON        MOSUNNY   -4 -11  71 S5        30.51F WCI -15
MORRIS         MOSUNNY   -2  -9  71 S7        30.50R WCI -16
ALEXANDRIA     FAIR      -4  -9  79 SW7       30.47R WCI -18
ELBOW LAKE     FAIR      -7 -11  81 S8        30.50R WCI -22
WADENA         FAIR      -4  -9  77 SW7       30.45R WCI -18
GLENWOOD       FAIR       0  -6  78 SW7       30.49S WCI -13
APPLETON       CLOUDY     0  -9  65 SW6       30.54R WCI -12
BENSON         CLOUDY     0  -8  71 W9        30.53R WCI -16
ORTONVILLE     MOSUNNY    0  -9  65 CALM      30.51S
MADISON        MOSUNNY    3  -8  60 CALM      30.55R
WILLMAR        FAIR      -2  -8  78 SW3       30.56R
$$
MNZ033>034-036-042>043-049>051-058-059-211600-
   Central Minnesota

CITY           SKY/WX    TMP DP  RH WIND       PRES   REMARKS
ST CLOUD       FAIR       0  -5  79 W5        30.52R WCI -10
SAUK CENTRE    FAIR      -1  -7  75 W8        30.49S WCI -15
PAYNESVILLE    FAIR       0  -4  83 W5        30.52R WCI -10
AITKIN         FAIR       1  -6  71 SW8       30.44S WCI -12
PINE RIVER     FAIR      -2  -6  84 SW6       30.46R WCI -14
BRAINERD       FAIR      -1  -8  72 SW8       30.46R WCI -15
STAPLES        FAIR       0  -8  71 SW5       30.46R WCI -10
LONG PRAIRIE   FAIR       0  -6  78 S7        30.48R WCI -13
LITTLE FALLS   FAIR       0  -8  71 CALM      30.49F
LITCHFIELD     FAIR       3  -2  78 W6        30.53S WCI  -8
BUFFALO        FAIR       2  -4  75 SW5       30.56S WCI  -7
MAPLE LAKE     FAIR       3  -3  75 SW3       30.54S
HUTCHINSON     FAIR       3  -3  74 SW5       30.56R WCI  -6
$$
MNZ037-044-045-052-053-211600-
   East Central Minnesota

CITY           SKY/WX    TMP DP  RH WIND       PRES   REMARKS
PRINCETON      FAIR       3  -2  78 CALM      30.51F
MORA           FAIR       1  -4  78 W6        30.52R WCI -10
CAMBRIDGE      FAIR       3  -4  72 SW3       30.53R
RUSH CITY      FAIR       3  -3  75 SW3       30.53R
MOOSE LAKE     FAIR       0  -6  78 CALM      30.47R
HINCKLEY       FAIR       1  -2  85 W6        30.50S WCI -10
CLOQUET        FAIR       1  -6  71 SW7       30.42R WCI -11
MCGREGOR       FAIR       3   0  85 SW5       30.46R WCI  -6
$$
MNZ071>073-080-081-089-090-097-098-211600-
   Southwest Minnesota

CITY           SKY/WX    TMP DP  RH WIND       PRES   REMARKS
MONTEVIDEO     CLOUDY     7  -2  66 W8        30.55R WCI  -6
GRANITE FALLS  CLOUDY     1  -6  71 CALM      30.59R
CANBY          CLOUDY     4  -6  63 CALM      30.56R
MARSHALL       CLOUDY     4  -6  63 SW8       30.56R WCI  -9
REDWOOD FALLS  CLOUDY     3  -6  66 W7        30.57R WCI  -9
OLIVIA         CLOUDY     0  -6  78 W8        30.55R WCI -15
PIPESTONE      CLOUDY    -6  -9  84 W3        30.50R
WORTHINGTON    CLOUDY     5  -4  66 S7        30.56R WCI  -7
JACKSON        CLOUDY     3  -4  72 SW7       30.57R WCI  -9
TRACY          CLOUDY     3  -4  72 SW10      30.54R WCI -13
SLAYTON        CLOUDY     1  -6  72 SW5       30.53R WCI  -9
$$
MNZ065>067-074>077-082>085-091>093-211600-
   South Central Minnesota

CITY           SKY/WX    TMP DP  RH WIND       PRES   REMARKS
MANKATO        FAIR       7  -1  70 SW8       30.61R WCI  -6
NEW ULM        CLOUDY     1  -6  71 SW7       30.59R WCI -11
ST JAMES       CLOUDY     1  -4  78 S7        30.61R WCI -11
FAIRMONT       CLOUDY     7  -1  70 W7        30.59R WCI  -5
GLENCOE        FAIR       4  -3  73 SW5       30.58R WCI  -5
FARIBAULT      FAIR       5   0  78 S5        30.58R WCI  -4
OWATONNA       FAIR       3   0  85 S3        30.58R
WASECA         FAIR       5   0  78 S5        30.60R WCI  -4
ALBERT LEA     FAIR       9   0  66 CALM      30.56S
$$
MNZ078>079-086>088-094>096-211600-
   Southeast Minnesota

CITY           SKY/WX    TMP DP  RH WIND       PRES   REMARKS
ROCHESTER      FAIR       7   3  84 SW3       30.56R
RED WING       FAIR       7  -2  66 W6        30.60R WCI  -3
STANTON        FAIR       5  -2  74 SW6       30.58R WCI  -6
DODGE CENTER   FAIR       3   0  85 W5        30.55R WCI  -6
WINONA         FAIR      12   5  73 W3        30.60F
AUSTIN         FAIR       9   1  72 CALM      30.56R
PRESTON        FAIR      10   4  78 NW5       30.56F WCI   1
$$
ABBREVIATIONS USED IN REMARKS
   TC - TEMPERATURES IN CELSIUS
  WCI - WIND CHILL INDEX
   HX - HEAT INDEX
  VSB - VISIBILITY
$$




USA.gov is the U.S. government's official web portal to all federal, state and local government web resources and services.